Weather History for Iron Mountain, MI

Change the Weather History Date:

Thursday, February 21, 2013

  Actual Average Record
Temperature  
Mean Temperature 16 °F -  
Max Temperature 25 °F 32 °F 50 °F (1961)
Min Temperature 6 °F 10 °F -20 °F (2008)
Degree Days  
Heating Degree Days 50    
Moisture  
Dew Point 13 °F    
Average Humidity 81    
Maximum Humidity 93    
Minimum Humidity 66    
Precipitation  
Precipitation 0.00 in - - ()
Sea Level Pressure  
Sea Level Pressure 30.38 in    
Wind  
Wind Speed 7 mph (North)    
Max Wind Speed 13 mph    
Max Gust Speed 18 mph    
Visibility 10 miles    
Events      
Averages and records for this station are not official NWS values.
T = Trace of Precipitation, MM = Missing Value Source: NWS Daily Summary

Daily Weather History Graph

Daily Weather History Graph

Search for Another Location

Airport:

Trip Planner

Search our weather history database for the weather conditions in past years. The results will help you decide how hot, cold, wet, or windy it might be!

Date:

Astronomy

Feb. 21, 2013 Rise Set
Actual Time 6:44 AM CST 5:28 PM CST
Civil Twilight 6:14 AM CST 5:58 PM CST
Nautical Twilight 5:39 AM CST 6:33 PM CST
Astronomical Twilight 5:05 AM CST 7:07 PM CST
Moon 1:34 PM CST (2/21) 3:57 AM CST (2/21)
Length of Visible Light 11h 44m
Length of Day
10h 43m
Waxing Gibbous, 84% of the Moon is Illuminated
Feb 21
Waxing Gibbous
Feb 25
Full
Mar 4
Last Quarter
Mar 11
New
Mar 19
First Quarter

Hourly Weather History & Observations

Time (CST) Temp. Windchill Dew Point Humidity Pressure Visibility Wind Dir Wind Speed Gust Speed Precip Events Conditions
12:54 AM 6.1 °F -0.9 °F 1.9 °F 83% 30.42 in 10.0 mi WNW 3.5 mph - N/A   Overcast
1:54 AM 7.0 °F -3.3 °F 1.9 °F 80% 30.43 in 10.0 mi NNW 5.8 mph - N/A   Overcast
2:54 AM 7.0 °F 0.1 °F 1.9 °F 80% 30.43 in 10.0 mi NNW 3.5 mph - N/A   Overcast
3:54 AM 9.0 °F -2.2 °F 5.0 °F 84% 30.43 in 10.0 mi NW 6.9 mph - N/A   Overcast
4:54 AM 10.9 °F -2.6 °F 7.0 °F 84% 30.45 in 10.0 mi NW 10.4 mph - N/A   Overcast
5:54 AM 12.0 °F 0.5 °F 8.1 °F 84% 30.49 in 10.0 mi NW 8.1 mph - N/A   Overcast
6:54 AM 12.9 °F 2.6 °F 8.1 °F 81% 30.50 in 9.0 mi NNW 6.9 mph - N/A   Overcast
7:54 AM 15.1 °F 1.1 °F 10.0 °F 80% 30.45 in 10.0 mi North 12.7 mph - N/A   Overcast
8:54 AM 17.1 °F 4.3 °F 12.0 °F 81% 30.39 in 10.0 mi North 11.5 mph 18.4 mph N/A   Overcast
9:54 AM 19.0 °F 11.1 °F 12.9 °F 77% 30.47 in 10.0 mi NNW 5.8 mph - N/A   Overcast
10:54 AM 19.9 °F 8.6 °F 14.0 °F 78% 30.47 in 10.0 mi North 10.4 mph - N/A   Overcast
11:43 AM 21.2 °F 10.9 °F 15.8 °F 80% 30.38 in 10.0 mi North 9.2 mph - N/A   Overcast
11:54 AM 21.9 °F 12.5 °F 14.0 °F 72% 30.45 in 10.0 mi NNE 8.1 mph - N/A   Overcast
12:54 PM 24.1 °F 13.7 °F 16.0 °F 71% 30.44 in 10.0 mi North 10.4 mph - N/A   Overcast
1:54 PM 25.0 °F 15.5 °F 15.1 °F 66% 30.39 in 10.0 mi NNE 9.2 mph - N/A   Scattered Clouds
2:25 PM 24.8 °F 14.6 °F 15.8 °F 69% 30.31 in 10.0 mi North 10.4 mph - N/A   Mostly Cloudy
2:54 PM 25.0 °F 15.5 °F 16.0 °F 69% 30.39 in 10.0 mi NNE 9.2 mph - N/A   Mostly Cloudy
3:54 PM 24.1 °F 14.4 °F 16.0 °F 71% 30.38 in 10.0 mi NNE 9.2 mph - N/A   Overcast
4:54 PM 23.0 °F 12.4 °F 17.1 °F 78% 30.38 in 10.0 mi NE 10.4 mph - N/A   Overcast
5:09 PM 21.2 °F 10.1 °F 17.6 °F 86% 30.31 in 10.0 mi East 10.4 mph - N/A   Overcast
5:54 PM 21.0 °F 10.6 °F 17.1 °F 85% 30.39 in 10.0 mi NNE 9.2 mph - N/A   Overcast
6:54 PM 21.0 °F 12.4 °F 17.1 °F 85% 30.37 in 10.0 mi NE 6.9 mph - N/A   Overcast
7:54 PM 21.0 °F 9.9 °F 19.0 °F 92% 30.34 in 10.0 mi ENE 10.4 mph - N/A   Overcast
8:08 PM 21.2 °F 14.9 °F 19.4 °F 93% 30.26 in 10.0 mi ENE 4.6 mph - N/A   Overcast
8:54 PM 21.0 °F 12.4 °F 18.0 °F 88% 30.34 in 10.0 mi Variable 6.9 mph - N/A   Overcast
9:54 PM 19.0 °F 10.0 °F 17.1 °F 92% 30.30 in 10.0 mi Variable 6.9 mph - N/A   Overcast
10:09 PM 19.4 °F 9.5 °F 15.8 °F 86% 30.23 in 10.0 mi East 8.1 mph 16.1 mph N/A   Overcast
10:54 PM 19.0 °F 11.1 °F 16.0 °F 88% 30.28 in 10.0 mi Variable 5.8 mph - N/A   Overcast
11:54 PM 18.0 °F 9.8 °F 16.0 °F 92% 30.26 in 10.0 mi East 5.8 mph 16.1 mph N/A   Overcast